Flag for Slovakia Weather past 2 weeks in Košice, Slovakia

Now
37 °F

Clear.


Feels Like: 34 °F
Forecast: 36 / 49 °F
Wind: 5 mph from North

Location: Kosice - Barca

Current Time: Oct 25, 2014 at 11:32:48 PM

Latest Report: Oct 25, 2014 at 11:00 PM


Visibility: 10 mi

Pressure: 30.33 "Hg

Humidity: 100%

Dew point: 37 °F

Location of KošiceLocation

Historic Weather in Košice — Graph

°F

Košice temperature yesterday

Maximum temperature yesterday: 43 °F (at 12:00 AM)
Minimum temperature yesterday: 37 °F (at 3:30 PM)
Average temperature yesterday: 39 °F

Past Weeks' High & Low Weather Summary

 TemperatureHumidityPressure
High73 °F (Oct 12, 1:30 PM)100% (Oct 11, 6:00 AM)30.39 "Hg (Oct 11, 6:00 AM)
Low37 °F (Oct 24, 3:30 PM)51% (Oct 25, 2:30 PM)29.47 "Hg (Oct 22, 2:30 PM)
Average54 °F87%29.96 "Hg
* Reported Oct 10 10:00 PM — Oct 25 10:00 PM, Košice, Weather by CustomWeather, © 2014

Note: Actual official high and low records may vary slightly from our data, if they occured in-between our weather recording intervals... More about our weather records

Advertising

Košice weather history for previous 24 hours

 ConditionsComfort  
Time TempWeatherWind HumidityBarometerVisibility
10:00 PM
Oct 25
37 °FPassing clouds.3 mph100%30.30 "HgN/A
9:30 PM39 °FClear.1 mph93%30.30 "Hg10 mi
9:00 PM39 °FClear.6 mph100%30.30 "Hg10 mi
8:30 PM41 °FClear.2 mph87%30.27 "Hg10 mi
8:00 PM41 °FPassing clouds.3 mph93%30.27 "HgN/A
7:30 PM43 °FClear.3 mph81%30.27 "Hg10 mi
7:00 PM41 °FClear.3 mph87%30.27 "Hg10 mi
6:30 PM45 °FClear.1 mph81%30.27 "Hg10 mi
6:00 PM46 °FSunny.5 mph76%30.27 "Hg10 mi
5:30 PM50 °FSunny.2 mph67%30.27 "Hg10 mi
5:00 PM52 °FSunny.5 mph58%30.24 "Hg10 mi
4:30 PM54 °FSunny.3 mph54%30.24 "Hg10 mi
4:00 PM54 °FSunny.3 mph54%30.27 "Hg10 mi
3:30 PM54 °FSunny.2 mph54%30.27 "Hg10 mi
3:00 PM54 °FPassing clouds.3 mph54%30.27 "HgN/A
2:30 PM54 °FPassing clouds.3 mph51%30.27 "HgN/A
2:00 PM52 °FSunny.2 mph58%30.27 "Hg10 mi
1:30 PM50 °FPassing clouds.3 mph62%30.27 "HgN/A
1:00 PM48 °FPassing clouds.3 mph66%30.27 "HgN/A
12:30 PM46 °FPartly sunny.3 mph76%30.30 "HgN/A
12:00 PM45 °FPartly sunny.3 mph76%30.30 "HgN/A
11:30 AM43 °FPartly sunny.6 mph81%30.30 "HgN/A
11:00 AM43 °FPartly sunny.5 mph76%30.30 "HgN/A
10:30 AM43 °FPartly sunny.6 mph76%30.27 "HgN/A
10:00 AM41 °FPartly sunny.6 mph81%30.27 "HgN/A
9:30 AM41 °FPartly sunny.6 mph81%30.27 "HgN/A
9:00 AM39 °FPartly sunny.6 mph87%30.27 "HgN/A
8:30 AM39 °FPartly sunny.8 mph81%30.24 "HgN/A
8:00 AM39 °FPassing clouds.6 mph81%30.24 "HgN/A
7:30 AM37 °FPassing clouds.6 mph87%30.24 "HgN/A
7:00 AM37 °FPassing clouds.5 mph87%30.24 "HgN/A
6:30 AM39 °FMostly cloudy.7 mph81%30.21 "HgN/A
6:00 AM37 °FOvercast.8 mph87%30.21 "HgN/A
5:30 AM39 °FOvercast.7 mph81%30.24 "HgN/A
5:00 AM37 °FOvercast.7 mph81%30.24 "HgN/A
4:30 AM37 °FOvercast.7 mph81%30.24 "HgN/A
4:00 AM37 °FOvercast.7 mph81%30.24 "HgN/A
3:30 AM37 °FOvercast.8 mph81%30.24 "HgN/A
3:00 AM37 °FOvercast.9 mph81%30.24 "HgN/A
2:30 AM37 °FOvercast.10 mph81%30.24 "HgN/A
2:00 AM37 °FOvercast.12 mph81%30.21 "HgN/A
1:30 AM37 °FOvercast.13 mph81%30.21 "HgN/A
1:00 AM37 °FOvercast.12 mph81%30.21 "HgN/A
12:30 AM37 °FOvercast.12 mph81%30.21 "HgN/A
12:00 AM37 °FOvercast.10 mph81%30.21 "HgN/A
11:30 PM
Oct 24
37 °FOvercast.13 mph81%30.21 "HgN/A
11:00 PM37 °FOvercast.12 mph81%30.21 "HgN/A
Weather by CustomWeather, © 2014

See weather overviewHow to use our weather pages